EW8163 Weather Reports


Display with metric or nautical units.
time (UTC)temp
F
wind
direction
speed
MPH
gust
MPH
rain 1hr
in
rain 24hr
in
rain mn
in
humidity
%
barometer
mb
20260503182918 63 85 0.0 3.0 0.00 0.00 0.00 34 1014.5
20260503181920 63 213 3.0 7.0 0.00 0.00 0.00 30 1014.6
20260503181019 64 255 4.0 7.0 0.00 0.00 0.00 30 1014.6
20260503180920 64 347 1.0 4.0 0.00 0.00 0.00 31 1014.5
20260503175920 64 180 0.0 1.0 0.00 0.00 0.00 30 1014.4
20260503175836 64 154 2.0 5.0 0.00 0.00 0.00 29 1014.4
20260503174920 64 292 1.0 3.0 0.00 0.00 0.00 31 1014.4
20260503174017 63 113 2.0 3.0 0.00 0.00 0.00 30 1014.4
20260503172117 63 273 4.0 8.0 0.00 0.00 0.00 29 1014.2
20260503171119 63 231 2.0 4.0 0.00 0.00 0.00 29 1014.3
20260503171019 63 243 1.0 4.0 0.00 0.00 0.00 30 1014.3
20260503170934 63 112 1.0 1.0 0.00 0.00 0.00 30 1014.3
20260503150239 49 360 0.0 0.0 0.00 0.00 0.00 79 1014.1
20260503140240 40 360 0.0 0.0 0.00 0.00 0.00 91 1013.8
20260503131139 38 360 0.0 0.0 0.00 0.00 0.00 92 1013.7
20260503130237 39 360 0.0 0.0 0.00 0.00 0.00 91 1013.7
20260503110436 38 270 0.0 0.0 0.00 0.00 0.00 93 1014.0
20260503100240 37 270 0.0 0.0 0.00 0.00 0.00 94 1014.4
20260503100138 37 270 0.0 0.0 0.00 0.00 0.00 94 1014.5
20260503072837 41 270 0.0 0.0 0.00 0.00 0.00 89 1015.7
20260503071841 41 270 0.0 0.0 0.00 0.00 0.00 88 1016.0
20260503070838 41 270 0.0 0.0 0.00 0.00 0.00 88 1015.9
20260503054925 44 270 0.0 0.0 0.00 0.00 0.00 82 1016.6
20260503054023 45 270 0.0 0.0 0.00 0.00 0.00 80 1016.6
20260503052942 46 270 0.0 0.0 0.00 0.00 0.00 79 1016.8
20260503052025 46 270 0.0 0.0 0.00 0.00 0.00 78 1016.8
20260503051923 46 270 0.0 0.0 0.00 0.00 0.00 78 1016.9
20260503050925 46 270 0.0 0.0 0.00 0.00 0.00 76 1016.9
20260503045927 47 270 0.0 0.0 0.00 0.00 0.00 76 1016.9
20260503045023 47 270 0.0 0.0 0.00 0.00 0.00 75 1016.7
20260503044925 47 270 0.0 0.0 0.00 0.00 0.00 75 1016.7
20260503043024 48 270 0.0 0.0 0.00 0.00 0.00 73 1016.6
20260503042923 48 270 0.0 0.0 0.00 0.00 0.00 72 1016.5
20260503041925 49 270 0.0 0.0 0.00 0.00 0.00 70 1016.5
20260503040031 51 270 0.0 0.0 0.00 0.00 0.00 67 1016.4
20260503034124 52 270 0.0 0.0 0.00 0.00 0.00 66 1016.2
20260503034027 52 270 0.0 0.0 0.00 0.00 0.00 66 1016.2
20260503033124 53 270 0.0 0.0 0.00 0.00 0.00 65 1016.3
20260503032127 54 270 0.0 1.0 0.00 0.00 0.00 62 1016.0
20260503031224 55 270 0.0 0.0 0.00 0.00 0.00 62 1016.0
20260503030226 55 270 0.0 0.0 0.00 0.00 0.00 60 1016.1
20260503024225 58 270 0.0 0.0 0.00 0.00 0.00 56 1015.9
20260503023227 59 270 0.0 0.0 0.00 0.00 0.00 52 1015.8
20260503022323 60 270 0.0 0.0 0.00 0.00 0.00 49 1015.9
20260503021325 62 270 0.0 0.0 0.00 0.00 0.00 47 1016.0
20260503015424 63 270 0.0 0.0 0.00 0.00 0.00 41 1016.0
20260503012424 65 310 0.0 1.0 0.00 0.00 0.00 34 1016.0
20260503012326 66 308 2.0 3.0 0.00 0.00 0.00 33 1015.9
20260503011323 67 247 3.0 6.0 0.00 0.00 0.00 32 1015.9
20260503010324 68 180 0.0 2.0 0.00 0.00 0.00 31 1015.9
20260503005328 68 180 2.0 7.0 0.00 0.00 0.00 32 1015.9
20260503004323 68 266 1.0 4.0 0.00 0.00 0.00 31 1016.0
20260503002325 70 210 4.0 7.0 0.00 0.00 0.00 32 1016.0
20260503001325 69 237 2.0 4.0 0.00 0.00 0.00 30 1016.1
20260503001223 69 255 2.0 3.0 0.00 0.00 0.00 31 1016.0
20260502235324 69 175 0.0 2.0 0.00 0.00 0.00 32 1016.2
20260502234325 69 234 3.0 4.0 0.00 0.00 0.00 32 1016.2
20260502234226 69 179 3.0 6.0 0.00 0.00 0.00 32 1016.1
20260502233324 69 95 3.0 5.0 0.00 0.00 0.00 31 1016.2
20260502230325 68 249 2.0 4.0 0.00 0.00 0.00 31 1016.5
20260502225324 70 222 6.0 11.0 0.00 0.00 0.00 30 1016.6
20260502224423 70 222 5.0 10.0 0.00 0.00 0.00 29 1016.8
20260502224323 70 124 5.0 9.0 0.00 0.00 0.00 29 1016.8
20260502223325 69 277 4.0 13.0 0.00 0.00 0.00 31 1016.9
20260502222341 69 247 2.0 3.0 0.00 0.00 0.00 34 1017.1
20260502221423 70 138 1.0 4.0 0.00 0.00 0.00 33 1017.2
20260502220424 71 201 1.0 6.0 0.00 0.00 0.00 32 1017.2
20260502220325 71 316 2.0 4.0 0.00 0.00 0.00 31 1017.3
20260502215325 70 227 2.0 6.0 0.00 0.00 0.00 32 1017.3
20260502214325 70 162 2.0 3.0 0.00 0.00 0.00 32 1017.5
20260502212324 69 182 2.0 5.0 0.00 0.00 0.00 34 1017.6
20260502210425 69 227 4.0 8.0 0.00 0.00 0.00 35 1018.0
20260502204424 70 133 3.0 7.0 0.00 0.00 0.00 32 1018.0
20260502203425 70 226 2.0 6.0 0.00 0.00 0.00 32 1018.1
20260502202423 70 249 4.0 9.0 0.00 0.00 0.00 32 1018.1
20260502201441 69 235 5.0 7.0 0.00 0.00 0.00 33 1018.0
20260502201325 69 158 2.0 5.0 0.00 0.00 0.00 32 1018.1
20260502200324 69 195 3.0 8.0 0.00 0.00 0.00 31 1018.3
20260502195324 69 203 5.0 9.0 0.00 0.00 0.00 30 1018.2
20260502194325 69 203 3.0 5.0 0.00 0.00 0.00 31 1018.2
20260502193323 69 231 4.0 7.0 0.00 0.00 0.00 29 1018.2
20260502191339 70 173 1.0 4.0 0.00 0.00 0.00 30 1018.3
20260502190325 69 193 4.0 10.0 0.00 0.00 0.00 29 1018.3
20260502190222 69 296 3.0 6.0 0.00 0.00 0.00 29 1018.2
20260502185224 69 245 5.0 11.0 0.00 0.00 0.00 28 1018.2
20260502184224 68 206 5.0 11.0 0.00 0.00 0.00 27 1018.4
20260502184141 68 261 7.0 13.0 0.00 0.00 0.00 27 1018.4